This demonstration page uses our WeatherBlox Daily Observations layout. Learn more.

Left ArrowRight Arrow

Hourly Observations for March 1, 2021

Temp ( °F °C ) Dew Point ( °F °C ) Humidity (%) Winds ( mph kmh ) Pressure ( in mb ) Visibility ( mi km ) Precip ( " mm )
12:54 am 00:54 Clear 27 -2.8 22 -5.6 81 81 SW 3 6 30.24 1024 10 16 N/A
1:54 am 01:54 Clear 26 -3.3 22 -5.6 84 84 N N/A 30.24 1024 10 16 N/A
2:54 am 02:54 Clear 27 -2.8 22 -5.6 81 81 S 3 6 30.24 1024 10 16 N/A
3:54 am 03:54 Clear 30 -1.1 24 -4.4 79 79 WSW 8 13 30.22 1023 10 16 N/A
4:54 am 04:54 Clear 30 -1.1 23 -5 75 75 WSW 9 15 30.23 1024 10 16 N/A
5:54 am 05:54 Clear 31 -0.6 23 -5 72 72 W 5 7 30.25 1024 10 16 N/A
6:54 am 06:54 Clear 30 -1.1 22 -5.6 72 72 W 6 9 30.27 1025 10 16 N/A
7:54 am 07:54 Sunny 32 undefined 23 -5 69 69 N 3 6 30.31 1026 10 16 N/A
8:54 am 08:54 Sunny 37 2.8 23 -5 57 57 NNW 14 22 30.33 1027 10 16 N/A
9:54 am 09:54 Sunny 40 4.4 22 -5.6 49 49 NNW 18 30 30.35 1028 10 16 N/A
10:54 am 10:54 Sunny 42 5.6 24 -4.4 49 49 N 13 20 30.37 1028 10 16 N/A
11:54 am 11:54 Sunny 44 6.7 26 -3.3 49 49 N 12 19 30.39 1029 10 16 N/A
12:54 pm 12:54 Sunny 44 6.7 27 -2.8 51 51 N 10 17 30.40 1029 10 16 N/A
1:54 pm 13:54 Sunny 45 7.2 27 -2.8 49 49 N 10 17 30.39 1029 10 16 N/A
2:54 pm 14:54 Sunny 46 7.8 27 -2.8 47 47 N 8 13 30.38 1029 10 16 N/A
3:54 pm 15:54 Sunny 47 8.3 27 -2.8 46 46 NNW 3 6 30.37 1029 10 16 N/A
4:54 pm 16:54 Sunny 45 7.2 27 -2.8 49 49 NNE 5 7 30.38 1029 10 16 N/A
5:54 pm 17:54 Sunny 41 5 27 -2.8 57 57 NE 7 11 30.38 1029 10 16 N/A
6:54 pm 18:54 Clear 34 1.1 25 -3.9 70 70 NE 7 11 30.40 1029 10 16 N/A
7:54 pm 19:54 Clear 36 2.2 26 -3.3 67 67 N N/A 30.38 1029 10 16 N/A
8:54 pm 20:54 Clear 31 -0.6 25 -3.9 79 79 ENE 3 6 30.39 1029 10 16 N/A
9:54 pm 21:54 Clear 31 -0.6 24 -4.4 76 76 N N/A 30.38 1029 10 16 N/A
10:54 pm 22:54 Clear 29 -1.7 23 -5 78 78 SSE 7 11 30.35 1028 10 16 N/A
11:54 pm 23:54 Clear 30 -1.1 25 -3.9 82 82 SSW 3 6 30.32 1027 10 16 N/A

Powered by AerisWeather